Weather History for Marathon, FL

Change the Weather History Date:

Friday, October 26, 2012

  Actual Average Record
Temperature  
Mean Temperature 78 °F 79 °F  
Max Temperature 82 °F 84 °F 91 °F (1997)
Min Temperature 74 °F 74 °F 71 °F (2006)
Degree Days  
Heating Degree Days 0 0  
Month to date heating degree days 0 0  
Since 1 July heating degree days 0 0  
Cooling Degree Days 13 14  
Month to date cooling degree days 466 419  
Year to date cooling degree days 4709 4373  
Growing Degree Days 28 (Base 50)    
Moisture  
Dew Point 67 °F    
Average Humidity 72    
Maximum Humidity 79    
Minimum Humidity 64    
Precipitation  
Precipitation 0.08 in 0.14 in 0.62 in (2007)
Month to date precipitation 3.67 4.09  
Year to date precipitation 43.80 40.64  
Snow  
Snow 0.00 in - - ()
Month to date snowfall 0.0  
Since 1 July snowfall 0.0  
Since 1 September snowfall 0.0  
Snow Depth 0.00 in    
Sea Level Pressure  
Sea Level Pressure 29.62 in    
Wind  
Wind Speed 15 mph (NNW)    
Max Wind Speed 23 mph    
Max Gust Speed 33 mph    
Visibility 9 miles    
Events Rain    
T = Trace of Precipitation, MM = Missing Value Source: NWS Daily Summary

Daily Weather History Graph

Daily Weather History Graph

Search for Another Location

Airport:

Trip Planner

Search our weather history database for the weather conditions in past years. The results will help you decide how hot, cold, wet, or windy it might be!

Date:

Astronomy

Oct. 26, 2012 Rise Set
Actual Time 7:28 AM EDT 6:47 PM EDT
Civil Twilight 7:04 AM EDT 7:11 PM EDT
Nautical Twilight 6:37 AM EDT 7:37 PM EDT
Astronomical Twilight 6:11 AM EDT 8:04 PM EDT
Moon 4:50 PM EDT (10/26) 4:38 AM EDT (10/26)
Length of Visible Light 12h 06m
Length of Day
11h 19m
Waxing Gibbous, 91% of the Moon is Illuminated
Oct 26
Waxing Gibbous
Oct 29
Full
Nov 6
Last Quarter
Nov 13
New
Nov 20
First Quarter

Hourly Weather History & Observations

Time (EDT) Temp. Heat Index Dew Point Humidity Pressure Visibility Wind Dir Wind Speed Gust Speed Precip Events Conditions
12:53 AM 75.0 °F - 68.0 °F 79% 29.65 in 7.0 mi North 17.3 mph 26.5 mph 0.08 in Rain Light Rain
1:53 AM 75.9 °F - 68.0 °F 76% 29.61 in 10.0 mi North 17.3 mph 29.9 mph 0.00 in   Overcast
2:53 AM 75.9 °F - 68.0 °F 76% 29.60 in 10.0 mi North 18.4 mph 31.1 mph N/A   Overcast
3:53 AM 77.0 °F - 66.9 °F 71% 29.60 in 10.0 mi NNW 15.0 mph 28.8 mph N/A   Overcast
4:53 AM 75.9 °F - 66.9 °F 74% 29.59 in 10.0 mi NNW 18.4 mph 28.8 mph 0.01 in   Overcast
5:53 AM 75.9 °F - 66.9 °F 74% 29.60 in 10.0 mi NNW 18.4 mph 28.8 mph N/A   Overcast
6:53 AM 77.0 °F - 66.0 °F 69% 29.60 in 10.0 mi NNW 13.8 mph 27.6 mph N/A   Overcast
7:53 AM 75.9 °F - 64.9 °F 69% 29.62 in 10.0 mi North 17.3 mph 28.8 mph N/A   Mostly Cloudy
9:53 AM 75.9 °F - 64.9 °F 69% 29.65 in 10.0 mi NNW 18.4 mph 28.8 mph N/A   Overcast
10:53 AM 77.0 °F - 66.0 °F 69% 29.66 in 10.0 mi NNW 12.7 mph 25.3 mph N/A   Overcast
11:53 AM 78.1 °F - 66.0 °F 66% 29.66 in 10.0 mi NNW 18.4 mph 28.8 mph N/A   Overcast
12:53 PM 77.0 °F - 66.9 °F 71% 29.64 in 9.0 mi NNW 19.6 mph 27.6 mph 0.00 in Rain Light Rain
1:53 PM 78.1 °F - 69.1 °F 74% 29.62 in 10.0 mi NW 15.0 mph 24.2 mph 0.00 in   Mostly Cloudy
2:53 PM 78.1 °F - 68.0 °F 71% 29.60 in 10.0 mi NW 12.7 mph 21.9 mph 0.00 in   Mostly Cloudy
3:53 PM 81.0 °F 83.8 °F 68.0 °F 65% 29.58 in 10.0 mi NW 12.7 mph 20.7 mph N/A   Scattered Clouds
4:53 PM 81.0 °F 83.8 °F 68.0 °F 65% 29.59 in 10.0 mi NW 15.0 mph 25.3 mph N/A   Scattered Clouds
5:53 PM 80.1 °F 82.7 °F 68.0 °F 67% 29.59 in 10.0 mi NNW 18.4 mph 25.3 mph N/A   Mostly Cloudy
6:53 PM 75.0 °F - 69.1 °F 82% 29.61 in 2.0 mi NW 11.5 mph 24.2 mph 0.03 in Rain Light Rain
7:02 PM 75.2 °F - 68.0 °F 78% 29.61 in 6.0 mi NNW 12.7 mph 23.0 mph 0.01 in Rain Light Rain
7:53 PM 75.0 °F - 66.9 °F 76% 29.62 in 10.0 mi NNW 10.4 mph 19.6 mph 0.01 in   Mostly Cloudy
8:53 PM 75.9 °F - 66.9 °F 74% 29.64 in 10.0 mi NW 10.4 mph - N/A   Partly Cloudy
9:53 PM 75.9 °F - 66.9 °F 74% 29.65 in 10.0 mi WNW 10.4 mph 19.6 mph N/A   Clear
10:14 PM 77.0 °F - 68.0 °F 74% 29.66 in 10.0 mi NW 9.2 mph - N/A   Mostly Cloudy
10:50 PM 77.0 °F - 69.8 °F 78% 29.65 in 10.0 mi NW 5.8 mph - N/A   Partly Cloudy
10:53 PM 77.0 °F - 69.1 °F 76% 29.65 in 10.0 mi NW 4.6 mph - N/A   Scattered Clouds
11:53 PM 77.0 °F - 69.1 °F 76% 29.65 in 10.0 mi NW 10.4 mph - 0.03 in   Clear